TimeEDT,TemperatureF,Dew PointF,Humidity,Sea Level PressureIn,VisibilityMPH,Wind Direction,Wind SpeedMPH,Gust SpeedMPH,PrecipitationIn,Events,Conditions,WindDirDegrees,DateUTC
12:15 AM,66.4,66.2,99,30.01,5.0,Calm,Calm,-,N/A,,Clear,0,2013-06-27 04:15:00
12:35 AM,67.6,67.5,99,30.02,10.0,Calm,Calm,-,N/A,,Clear,0,2013-06-27 04:35:00
12:55 AM,66.6,66.4,99,30.02,7.0,Calm,Calm,-,N/A,,Clear,0,2013-06-27 04:55:00
1:15 AM,65.8,65.5,99,30.02,7.0,Calm,Calm,-,N/A,,Clear,0,2013-06-27 05:15:00
1:35 AM,65.3,64.9,99,30.01,7.0,Calm,Calm,-,N/A,,Clear,0,2013-06-27 05:35:00
1:55 AM,66.4,66.4,100,30.00,5.0,Calm,Calm,-,N/A,,Clear,0,2013-06-27 05:55:00
2:15 AM,65.8,65.8,100,29.98,4.0,Calm,Calm,-,N/A,,Clear,0,2013-06-27 06:15:00
2:35 AM,64.2,64.2,100,29.96,4.0,Calm,Calm,-,N/A,,Scattered Clouds,0,2013-06-27 06:35:00
2:55 AM,64.8,64.8,100,29.96,4.0,Calm,Calm,-,N/A,,Scattered Clouds,0,2013-06-27 06:55:00
3:15 AM,65.3,65.3,100,29.95,2.5,Calm,Calm,-,N/A,,Mostly Cloudy,0,2013-06-27 07:15:00
3:35 AM,64.6,64.6,100,29.94,3.0,Calm,Calm,-,N/A,,Overcast,0,2013-06-27 07:35:00
3:55 AM,63.0,63.0,100,29.94,0.2,Calm,Calm,-,N/A,Fog,Fog,0,2013-06-27 07:55:00
4:15 AM,63.1,63.1,100,29.93,4.0,Calm,Calm,-,N/A,,Clear,0,2013-06-27 08:15:00
4:35 AM,64.4,64.4,100,29.93,4.0,Calm,Calm,-,N/A,,Clear,0,2013-06-27 08:35:00
4:55 AM,65.5,65.5,100,29.95,7.0,NW,5.8,-,N/A,,Mostly Cloudy,310,2013-06-27 08:55:00
5:15 AM,65.5,65.5,100,29.94,2.5,Calm,Calm,-,N/A,,Overcast,0,2013-06-27 09:15:00
5:35 AM,65.8,65.8,100,29.93,1.0,SSW,3.5,-,N/A,Rain,Light Rain,200,2013-06-27 09:35:00
5:55 AM,67.1,67.1,100,29.93,7.0,SW,4.6,-,N/A,,Scattered Clouds,230,2013-06-27 09:55:00
6:15 AM,67.8,67.8,100,29.93,7.0,WSW,3.5,-,N/A,Rain,Light Rain,250,2013-06-27 10:15:00
6:35 AM,68.0,68.0,100,29.93,7.0,WSW,6.9,-,N/A,,Clear,250,2013-06-27 10:35:00
6:55 AM,68.2,68.0,99,29.93,7.0,SW,6.9,-,N/A,Rain,Light Rain,230,2013-06-27 10:55:00
7:15 AM,68.7,68.0,98,29.93,10.0,WSW,8.1,-,N/A,,Clear,240,2013-06-27 11:15:00
7:35 AM,69.1,66.6,92,29.93,10.0,WSW,8.1,-,N/A,,Clear,240,2013-06-27 11:35:00
7:55 AM,69.3,65.1,87,29.92,10.0,WSW,4.6,-,N/A,,Clear,240,2013-06-27 11:55:00
8:15 AM,69.6,65.7,87,29.92,10.0,SW,5.8,-,N/A,,Clear,220,2013-06-27 12:15:00
8:35 AM,71.1,64.4,79,29.93,10.0,SW,5.8,-,N/A,,Clear,230,2013-06-27 12:35:00
8:55 AM,70.7,64.2,80,29.93,10.0,South,4.6,-,N/A,,Scattered Clouds,170,2013-06-27 12:55:00
9:15 AM,70.7,63.9,79,29.93,10.0,SSW,4.6,-,N/A,,Overcast,210,2013-06-27 13:15:00
9:35 AM,70.3,64.0,80,29.93,10.0,Calm,Calm,-,N/A,,Scattered Clouds,0,2013-06-27 13:35:00
9:55 AM,71.6,65.1,80,29.93,10.0,Calm,Calm,-,N/A,Rain,Light Rain,0,2013-06-27 13:55:00
10:15 AM,72.7,65.1,77,29.92,10.0,SSW,3.5,-,N/A,,Scattered Clouds,200,2013-06-27 14:15:00
10:35 AM,74.3,64.2,71,29.92,10.0,SSW,8.1,-,N/A,,Clear,210,2013-06-27 14:35:00
10:55 AM,74.7,63.7,69,29.93,10.0,Calm,Calm,-,N/A,,Clear,0,2013-06-27 14:55:00
11:15 AM,73.6,66.6,79,29.93,10.0,Calm,Calm,-,N/A,,Clear,0,2013-06-27 15:15:00
11:35 AM,76.1,65.1,69,29.93,10.0,Calm,Calm,-,N/A,Rain,Light Rain,0,2013-06-27 15:35:00
11:55 AM,77.2,65.3,67,29.92,10.0,SW,4.6,-,N/A,,Clear,220,2013-06-27 15:55:00
12:15 PM,78.1,66.2,67,29.91,10.0,SSW,5.8,-,N/A,,Clear,200,2013-06-27 16:15:00
12:35 PM,80.8,66.7,62,29.91,10.0,SW,5.8,-,N/A,,Clear,220,2013-06-27 16:35:00
12:55 PM,80.8,66.7,62,29.90,10.0,South,5.8,-,N/A,,Clear,170,2013-06-27 16:55:00
1:15 PM,83.5,66.0,55,29.90,10.0,SSW,5.8,-,N/A,,Clear,210,2013-06-27 17:15:00
1:35 PM,82.8,66.2,57,29.90,10.0,SW,4.6,-,N/A,,Scattered Clouds,230,2013-06-27 17:35:00
1:55 PM,84.6,66.4,54,29.90,10.0,WSW,3.5,-,N/A,,Scattered Clouds,250,2013-06-27 17:55:00
2:15 PM,85.1,66.9,54,29.89,10.0,WSW,6.9,-,N/A,,Scattered Clouds,250,2013-06-27 18:15:00
2:35 PM,85.3,67.1,54,29.89,10.0,SW,9.2,-,N/A,,Scattered Clouds,220,2013-06-27 18:35:00
2:55 PM,86.0,67.6,54,29.88,10.0,SW,8.1,-,N/A,,Scattered Clouds,230,2013-06-27 18:55:00
3:15 PM,86.5,69.1,56,29.88,10.0,SW,9.2,-,N/A,,Scattered Clouds,230,2013-06-27 19:15:00
3:35 PM,86.5,67.1,52,29.87,10.0,WSW,8.1,-,N/A,,Clear,240,2013-06-27 19:35:00
3:55 PM,86.5,67.6,53,29.85,10.0,WSW,6.9,-,N/A,,Clear,240,2013-06-27 19:55:00
4:15 PM,87.1,68.5,54,29.85,10.0,West,8.1,-,N/A,,Clear,260,2013-06-27 20:15:00
4:35 PM,87.3,67.8,52,29.85,10.0,SW,6.9,-,N/A,,Clear,230,2013-06-27 20:35:00
4:55 PM,86.7,68.4,54,29.83,10.0,WSW,4.6,-,N/A,,Scattered Clouds,250,2013-06-27 20:55:00
5:15 PM,86.9,68.9,55,29.83,10.0,WSW,4.6,-,N/A,,Mostly Cloudy,250,2013-06-27 21:15:00
5:35 PM,87.4,68.5,53,29.83,10.0,West,6.9,-,N/A,,Scattered Clouds,270,2013-06-27 21:35:00
5:55 PM,85.8,67.8,55,29.83,10.0,West,6.9,-,N/A,,Clear,270,2013-06-27 21:55:00
6:15 PM,84.2,68.0,58,29.82,10.0,West,5.8,-,N/A,,Clear,270,2013-06-27 22:15:00
6:35 PM,85.1,68.0,56,29.82,10.0,West,8.1,-,N/A,,Clear,260,2013-06-27 22:35:00
6:55 PM,84.9,67.6,56,29.83,10.0,West,4.6,-,N/A,,Clear,260,2013-06-27 22:55:00
7:15 PM,84.2,68.2,58,29.82,10.0,WSW,4.6,-,N/A,,Clear,250,2013-06-27 23:15:00
7:35 PM,83.8,68.9,61,29.82,10.0,WSW,3.5,-,N/A,,Clear,240,2013-06-27 23:35:00
7:55 PM,82.4,68.9,64,29.83,10.0,WSW,4.6,-,N/A,,Clear,240,2013-06-27 23:55:00
8:15 PM,81.1,68.5,65,29.85,10.0,WSW,3.5,-,N/A,,Scattered Clouds,250,2013-06-28 00:15:00
8:35 PM,80.2,68.2,67,29.85,10.0,Calm,Calm,-,N/A,,Scattered Clouds,0,2013-06-28 00:35:00
8:55 PM,79.7,68.0,67,29.86,10.0,WSW,3.5,-,N/A,,Scattered Clouds,240,2013-06-28 00:55:00
9:15 PM,79.0,68.0,69,29.85,10.0,WSW,3.5,-,N/A,,Scattered Clouds,250,2013-06-28 01:15:00
9:35 PM,78.1,68.0,71,29.86,10.0,WSW,3.5,-,N/A,,Scattered Clouds,250,2013-06-28 01:35:00
9:55 PM,78.4,67.5,69,29.87,10.0,WSW,3.5,-,N/A,,Scattered Clouds,250,2013-06-28 01:55:00
10:15 PM,78.4,67.5,69,29.87,10.0,West,3.5,-,N/A,,Mostly Cloudy,260,2013-06-28 02:15:00
10:35 PM,75.4,68.7,80,29.87,10.0,Calm,Calm,-,N/A,,Scattered Clouds,0,2013-06-28 02:35:00
10:55 PM,77.2,68.4,74,29.87,10.0,Calm,Calm,-,N/A,,Mostly Cloudy,0,2013-06-28 02:55:00
11:15 PM,73.0,69.8,90,29.87,10.0,West,3.5,-,N/A,,Scattered Clouds,280,2013-06-28 03:15:00
11:35 PM,71.4,68.4,90,29.87,10.0,Calm,Calm,-,N/A,,Clear,0,2013-06-28 03:35:00
11:55 PM,72.0,69.8,93,29.87,10.0,NNW,3.5,-,N/A,,Scattered Clouds,340,2013-06-28 03:55:00